디시인사이드 갤러리

리듬게임 갤러리

갤러리 이슈박스, 최근방문 갤러리

갤러리 본문 영역

레이더스코어는 뭐하면 올라가지앱에서 작성

ㅇㅇ(118.235) 2020.07.03 20:14:47
조회 39 추천 0 댓글 1

추천 비추천

0

고정닉 0

0

원본 첨부파일 1

댓글 영역

전체 리플 0
등록순정렬 기준선택

하단 갤러리 리스트 영역

왼쪽 컨텐츠 영역

갤러리 리스트 영역

갤러리 리스트
번호 제목 글쓴이 작성일 조회 추천
설문 '나 5cm만 주라' 키 커서 부러운 여자 아이돌은? 운영자 20/08/04 - -
공지 리듬게임에 관련된 사진과 내용을 올려주시기 바랍니다. [745] 운영자 06.08.29 10673555 207
11142420 ㅇㅇ(223.39) 18:53 2 0
11142419 스크곡하려면 어깨운동부터해야겠네 시발 [1] 5123874갤로그로 이동합니다. 18:53 3 0
11142418 아레나안해시발 ㅋㅋ [2] jeonsee갤로그로 이동합니다. 18:52 7 0
11142417 겜하고있는데 트라노이드레겐 기갱소식나오네 ㅇㅇ(211.36) 18:51 6 0
11142416 12렙 풀콤 하루에 3개 조져버리기 김팽송갤로그로 이동합니다. 18:50 4 0
11142415 흑카마 하드클 [5] 찐누갤로그로 이동합니다. 18:50 21 1
11142414 비트하러갈까요??????????? [1] 꼰마갤로그로 이동합니다. 18:50 8 0
11142413 멘데스 FlipFlap갤로그로 이동합니다. 18:49 7 0
11142412 헬스장2 이제야 끝.... [1] 대연동불빠따갤로그로 이동합니다. 18:48 12 0
11142411 천년의리레겐 랜덤걸면 개병신똥배치밖에 안뜨는거같은데 RaFan갤로그로 이동합니다. 18:47 10 0
11142410 따스 업뎃 공지 [2] kinetic갤로그로 이동합니다. 18:46 25 0
11142409 시발 야간진료날인줄 알았는데 야간진료는 어제였구요 死死五入갤로그로 이동합니다. 18:44 9 0
11142408 요시 조퇴 성굥 집 가서 비트 뚜돌길까요 신서진갤로그로 이동합니다. 18:43 8 0
11142407 사볼뉴비볼사람 비트하면짐승갤로그로 이동합니다. 18:43 8 0
11142406 이거 생각보다 할만한데 [5] FlipFlap갤로그로 이동합니다. 18:39 26 0
11142405 그래도 리갤엔 테에엥 거리는 애들 없어서 좋은듯 [4] 하욯갤로그로 이동합니다. 18:39 29 0
11142404 천공풀콤ㅋㅋㅋㅋㅋㅋㅋㅋㅋㅋㄱ어 [4] 리츠코의새우갤로그로 이동합니다. 18:33 44 0
11142403 대통령 아들 기갱 [4] 게메즈낙갤로그로 이동합니다. 18:32 29 0
11142402 백만년만에투덱함 [1] feelsogood(39.7) 18:31 16 0
11142401 돌체보다 겜잘하시는분 [1] Zzz...갤로그로 이동합니다. 18:30 28 0
11142400 오늘 2시간 자고 나와서 성과가 아예 안나오네 대연동불빠따갤로그로 이동합니다. 18:30 11 0
11142399 프다포디는 븜스인생 처음으로 플레이해봄 [4] ㅁㅁ갤로그로 이동합니다. 18:28 39 0
11142398 리나시타 연타에서 게이지 남겼다 [2] 게메즈낙갤로그로 이동합니다. 18:25 23 0
11142397 오늘리듬잘한것들 말걸리기장인갤로그로 이동합니다. 18:25 9 0
11142396 11렙 미플레이 이제 여섯개남음... 일부는시즈모드됐고일부는통통통통갤로그로 이동합니다. 18:18 12 0
11142395 이지투 방송컴터 에피소드 [2] 별.갤로그로 이동합니다. 18:17 59 0
11142394 한슨머 의외의 사실 : 한성대엔 맥도날드가 있다! [4] ㅇㅇ(220.127) 18:17 53 0
11142393 븜 5일 안했다고 정신을 못차리겠네 팥2(221.157) 18:16 15 0
11142392 작열 2 하드클 ㅋㅋㅋㅋㅋㅋㅋㅋㅋㅋㅋㅋㅋㅋㅋㅋㅋ [44] 츠다냥갤로그로 이동합니다. 18:16 125 12
11142391 월컴래갠하드클 feelsogood(39.7) 18:15 11 0
11142390 까마이타치 래겐 하드 ㅠㅠ [9] jeonsee갤로그로 이동합니다. 18:14 47 7
11142389 이카흑 진짜 악질이네 갓재삼(59.20) 18:14 19 0
11142388 그리드나이트랑 괴도프림좀잘한거같은데 [1] 옾션갤로그로 이동합니다. 18:14 17 0
11142387 디아볼로 시발 존나 안대주네 게메즈낙갤로그로 이동합니다. 18:12 14 0
11142386 개돼지클럽 투팝사볼다돌아가는거보니 무섭네 RaFan갤로그로 이동합니다. 18:12 21 0
11142385 와 이거 패턴 뭐임 11 맞나 ㅋㅋ [7] 츠다냥갤로그로 이동합니다. 18:12 61 0
11142384 25하기무섭다 말걸리기장인갤로그로 이동합니다. 18:12 10 0
11142383 갓재삼 왜 고닉 안쓰냐 [2] ㅇㅇ(110.70) 18:10 35 0
11142382 한숨자고 밤에 오락vs오락 잠깐만 하기 27(175.223) 18:09 23 0
11142381 v2 방치한 업보를 이제야 쳐받네 [4] 대연동불빠따갤로그로 이동합니다. 18:09 34 0
11142380 일본 트위터 트렌드에 사의표명있길래 아베 측근 누가 사임했나 했더니 [3] 함수갤로그로 이동합니다. 18:09 55 0
11142379 한슨머의 단점 : 버거킹 케엪씨가 없다. [4] ㅇㅇ(175.223) 18:06 39 0
11142378 48렙 졸업까지 두곡 [3] 게메즈낙갤로그로 이동합니다. 18:05 20 0
11142377 지금 시간에 a3가 매칭이 안되네 ㅇㅇ(223.33) 18:04 13 0
11142376 집에 갈가요 대연동불빠따갤로그로 이동합니다. 18:03 9 0
11142375 금칠은못하겠다 말걸리기장인갤로그로 이동합니다. 18:02 13 0
11142374 이거 사람이 하는거 맞냐 [5] 갓재삼(59.20) 18:00 50 0
11142373 왜 아레나만 하면 찐누갤로그로 이동합니다. 18:00 13 0
11142372 비올확률100%래서비오면일안간댔는데 Zzz...갤로그로 이동합니다. 17:59 11 0
갤러리 내부 검색
전체게시물 정렬 옵션

오른쪽 컨텐츠 영역

이슈줌NEW

1/6

힛(HIT)NEW

그때 그 힛

1/3